24-07-2022, 00:00:06,    219,    2.5,   15.8,   0.00,   0.00, 1013.4,   79.5, -999.0
24-07-2022, 00:00:16,    197,    1.2,   15.7,   0.00,   0.00, 1013.4,   79.7, -999.0
24-07-2022, 00:00:25,    197,    1.8,   15.7,   0.00,   0.00, 1013.4,   79.6, -999.0
24-07-2022, 00:00:36,    215,    1.3,   15.7,   0.00,   0.00, 1013.4,   79.8, -999.0
24-07-2022, 00:00:45,    180,    1.5,   15.7,   0.00,   0.00, 1013.4,   79.6, -999.0
24-07-2022, 00:00:55,    208,    1.2,   15.6,   0.00,   0.00, 1013.4,   79.6, -999.0
24-07-2022, 00:01:05,    197,    1.7,   15.6,   0.00,   0.00, 1013.4,   79.7, -999.0
24-07-2022, 00:01:15,    229,    1.0,   15.6,   0.00,   0.00, 1013.3,   79.4, -999.0
24-07-2022, 00:01:25,    155,    0.7,   15.6,   0.00,   0.00, 1013.4,   79.5, -999.0
24-07-2022, 00:01:35,    190,    0.8,   15.7,   0.00,   0.00, 1013.4,   79.6, -999.0
24-07-2022, 00:01:45,    167,    2.3,   15.7,   0.00,   0.00, 1013.3,   79.6, -999.0
24-07-2022, 00:01:55,    209,    3.4,   15.7,   0.00,   0.00, 1013.3,   79.7, -999.0
24-07-2022, 00:02:05,    219,    1.6,   15.7,   0.00,   0.00, 1013.3,   79.8, -999.0
24-07-2022, 00:02:15,    195,    1.3,   15.7,   0.00,   0.00, 1013.3,   79.7, -999.0
24-07-2022, 00:02:25,    181,    1.3,   15.7,   0.00,   0.00, 1013.3,   79.6, -999.0
24-07-2022, 00:02:35,    226,    1.4,   15.7,   0.00,   0.00, 1013.3,   79.8, -999.0
24-07-2022, 00:02:45,    211,    1.0,   15.6,   0.00,   0.00, 1013.3,   79.7, -999.0
24-07-2022, 00:02:55,    243,    1.9,   15.6,   0.00,   0.00, 1013.3,   79.6, -999.0
24-07-2022, 00:03:05,    231,    1.5,   15.7,   0.00,   0.00, 1013.3,   79.7, -999.0
24-07-2022, 00:03:15,    230,    1.9,   15.7,   0.00,   0.00, 1013.3,   79.7, -999.0
24-07-2022, 00:03:24,    217,    1.9,   15.6,   0.00,   0.00, 1013.3,   79.7, -999.0
24-07-2022, 00:03:34,    224,    0.5,   15.6,   0.00,   0.00, 1013.2,   79.7, -999.0
24-07-2022, 00:03:45,    188,    0.3,   15.6,   0.00,   0.00, 1013.2,   79.4, -999.0
24-07-2022, 00:03:54,    188,    0.2,   15.6,   0.00,   0.00, 1013.2,   79.6, -999.0
24-07-2022, 00:04:04,    188,    0.7,   15.7,   0.00,   0.00, 1013.3,   79.7, -999.0
24-07-2022, 00:04:14,    189,    1.7,   15.7,   0.00,   0.00, 1013.3,   79.7, -999.0
24-07-2022, 00:04:24,    193,    1.5,   15.7,   0.00,   0.00, 1013.3,   79.7, -999.0
24-07-2022, 00:04:34,    224,    1.2,   15.7,   0.00,   0.00, 1013.3,   79.8, -999.0
24-07-2022, 00:04:44,    185,    1.4,   15.7,   0.00,   0.00, 1013.3,   79.7, -999.0
24-07-2022, 00:04:54,    210,    2.2,   15.6,   0.00,   0.00, 1013.3,   79.8, -999.0
24-07-2022, 00:05:04,    209,    2.0,   15.6,   0.00,   0.00, 1013.3,   79.6, -999.0
24-07-2022, 00:05:14,    188,    3.2,   15.7,   0.00,   0.00, 1013.3,   79.7, -999.0
24-07-2022, 00:05:24,    211,    3.5,   15.7,   0.00,   0.00, 1013.3,   79.5, -999.0
24-07-2022, 00:05:34,    168,    2.5,   15.6,   0.00,   0.00, 1013.3,   79.7, -999.0
24-07-2022, 00:05:44,    222,    2.8,   15.7,   0.00,   0.00, 1013.3,   79.6, -999.0
24-07-2022, 00:05:54,    222,    2.8,   15.7,   0.00,   0.00, 1013.3,   79.6, -999.0
24-07-2022, 00:06:03,    191,    0.6,   15.6,   0.00,   0.00, 1013.3,   79.5, -999.0
24-07-2022, 00:06:14,    197,    1.7,   15.6,   0.00,   0.00, 1013.4,   79.6, -999.0
24-07-2022, 00:06:24,    226,    1.3,   15.7,   0.00,   0.00, 1013.3,   79.5, -999.0
24-07-2022, 00:06:33,    190,    1.6,   15.7,   0.00,   0.00, 1013.4,   79.5, -999.0
24-07-2022, 00:06:44,    202,    1.1,   15.7,   0.00,   0.00, 1013.4,   79.6, -999.0
24-07-2022, 00:06:53,    180,    0.6,   15.7,   0.00,   0.00, 1013.3,   79.6, -999.0
24-07-2022, 00:07:03,    155,    1.7,   15.6,   0.00,   0.00, 1013.3,   79.7, -999.0
24-07-2022, 00:07:13,    194,    0.0,   15.6,   0.00,   0.00, 1013.2,   79.4, -999.0
24-07-2022, 00:07:23,    198,    0.8,   15.7,   0.00,   0.00, 1013.3,   79.7, -999.0
24-07-2022, 00:07:33,    204,    1.6,   15.7,   0.00,   0.00, 1013.3,   79.5, -999.0
24-07-2022, 00:07:43,    197,    1.0,   15.7,   0.00,   0.00, 1013.3,   79.5, -999.0
24-07-2022, 00:07:53,    192,    1.1,   15.6,   0.00,   0.00, 1013.3,   79.3, -999.0
24-07-2022, 00:08:03,    254,    2.5,   15.6,   0.00,   0.00, 1013.3,   79.5, -999.0
24-07-2022, 00:08:13,    164,    4.2,   15.7,   0.00,   0.00, 1013.3,   79.4, -999.0
24-07-2022, 00:08:23,    168,    1.0,   15.6,   0.00,   0.00, 1013.3,   79.4, -999.0
24-07-2022, 00:08:33,    212,    2.8,   15.5,   0.00,   0.00, 1013.3,   79.4, -999.0
24-07-2022, 00:08:43,    208,    2.9,   15.7,   0.00,   0.00, 1013.3,   79.6, -999.0
24-07-2022, 00:08:53,    214,    3.0,   15.7,   0.00,   0.00, 1013.3,   79.4, -999.0
24-07-2022, 00:09:02,    191,    3.1,   15.5,   0.00,   0.00, 1013.3,   79.4, -999.0
24-07-2022, 00:09:13,    175,    4.7,   15.6,   0.00,   0.00, 1013.3,   79.4, -999.0
24-07-2022, 00:09:23,    200,    3.2,   15.6,   0.00,   0.00, 1013.3,   79.5, -999.0
24-07-2022, 00:09:32,    236,    3.3,   15.6,   0.00,   0.00, 1013.3,   79.5, -999.0
24-07-2022, 00:09:42,    179,    4.9,   15.7,   0.00,   0.00, 1013.3,   79.4, -999.0
24-07-2022, 00:09:53,    258,    2.3,   15.7,   0.00,   0.00, 1013.3,   79.4, -999.0
24-07-2022, 00:10:02,    211,    2.1,   15.7,   0.00,   0.00, 1013.3,   79.4, -999.0
24-07-2022, 00:10:12,    192,    2.5,   15.6,   0.00,   0.00, 1013.3,   79.5, -999.0
24-07-2022, 00:10:22,    272,    1.5,   15.7,   0.00,   0.00, 1013.3,   79.4, -999.0
24-07-2022, 00:10:32,    212,    3.2,   15.7,   0.00,   0.00, 1013.3,   79.5, -999.0
24-07-2022, 00:10:42,    211,    4.6,   15.7,   0.00,   0.00, 1013.3,   79.5, -999.0
24-07-2022, 00:10:52,    205,    4.4,   15.6,   0.00,   0.00, 1013.3,   79.4, -999.0
24-07-2022, 00:11:02,    223,    4.8,   15.6,   0.00,   0.00, 1013.3,   79.3, -999.0
24-07-2022, 00:11:14,    257,    3.0,   15.6,   0.00,   0.00, 1013.3,   79.4, -999.0
24-07-2022, 00:11:22,    213,    0.9,   15.6,   0.00,   0.00, 1013.3,   79.4, -999.0
24-07-2022, 00:11:32,    203,    1.0,   15.6,   0.00,   0.00, 1013.3,   79.4, -999.0
24-07-2022, 00:11:42,    214,    0.7,   15.6,   0.00,   0.00, 1013.3,   79.3, -999.0
24-07-2022, 00:11:52,    231,    1.1,   15.5,   0.00,   0.00, 1013.3,   79.4, -999.0
24-07-2022, 00:12:02,    229,    0.3,   15.6,   0.00,   0.00, 1013.2,   79.2, -999.0
24-07-2022, 00:12:11,    221,    0.0,   15.4,   0.00,   0.00, 1013.3,   79.1, -999.0
24-07-2022, 00:12:22,    211,    2.9,   15.6,   0.00,   0.00, 1013.4,   79.5, -999.0
24-07-2022, 00:12:31,    207,    4.5,   15.6,   0.00,   0.00, 1013.3,   79.5, -999.0
24-07-2022, 00:12:41,    212,    5.5,   15.6,   0.00,   0.00, 1013.3,   79.4, -999.0
24-07-2022, 00:12:51,    235,    2.8,   15.7,   0.00,   0.00, 1013.4,   79.4, -999.0
24-07-2022, 00:13:01,    197,    1.1,   15.6,   0.00,   0.00, 1013.3,   79.2, -999.0
24-07-2022, 00:13:11,    222,    1.5,   15.6,   0.00,   0.00, 1013.3,   79.4, -999.0
24-07-2022, 00:13:21,    209,    2.9,   15.6,   0.00,   0.00, 1013.3,   79.4, -999.0
24-07-2022, 00:13:31,    211,    3.2,   15.7,   0.00,   0.00, 1013.3,   79.5, -999.0
24-07-2022, 00:13:41,    204,    2.6,   15.6,   0.00,   0.00, 1013.3,   79.3, -999.0
24-07-2022, 00:13:51,    184,    2.2,   15.7,   0.00,   0.00, 1013.3,   79.5, -999.0
24-07-2022, 00:14:01,    186,    3.0,   15.6,   0.00,   0.00, 1013.3,   79.3, -999.0
24-07-2022, 00:14:11,    160,    1.5,   15.6,   0.00,   0.00, 1013.3,   79.5, -999.0
24-07-2022, 00:14:21,    245,    0.6,   15.7,   0.00,   0.00, 1013.3,   79.3, -999.0
24-07-2022, 00:14:31,    201,    3.2,   15.7,   0.00,   0.00, 1013.3,   79.4, -999.0
24-07-2022, 00:14:41,    203,    0.2,   15.6,   0.00,   0.00, 1013.2,   79.3, -999.0
24-07-2022, 00:14:51,    198,    0.0,   15.6,   0.00,   0.00, 1013.2,   79.2, -999.0
24-07-2022, 00:15:01,    173,    0.6,   15.6,   0.00,   0.00, 1013.3,   79.3, -999.0
24-07-2022, 00:15:10,    172,    0.1,   15.6,   0.00,   0.00, 1013.2,   79.1, -999.0
24-07-2022, 00:15:21,    228,    0.2,   15.5,   0.00,   0.00, 1013.2,   79.1, -999.0
24-07-2022, 00:15:31,    214,    2.9,   15.6,   0.00,   0.00, 1013.3,   79.4, -999.0
24-07-2022, 00:15:40,    224,    1.6,   15.6,   0.00,   0.00, 1013.3,   79.4, -999.0
24-07-2022, 00:15:50,    213,    2.0,   15.7,   0.00,   0.00, 1013.3,   79.4, -999.0
24-07-2022, 00:16:01,    222,    1.3,   15.7,   0.00,   0.00, 1013.3,   79.4, -999.0
24-07-2022, 00:16:10,    205,    3.4,   15.6,   0.00,   0.00, 1013.3,   79.3, -999.0
24-07-2022, 00:16:20,    208,    1.2,   15.7,   0.00,   0.00, 1013.3,   79.2, -999.0
24-07-2022, 00:16:30,    210,    0.9,   15.7,   0.00,   0.00, 1013.3,   79.1, -999.0
24-07-2022, 00:16:40,    210,    2.6,   15.6,   0.00,   0.00, 1013.3,   79.3, -999.0
24-07-2022, 00:16:50,    202,    0.6,   15.6,   0.00,   0.00, 1013.3,   79.1, -999.0
24-07-2022, 00:17:00,    237,    1.2,   15.7,   0.00,   0.00, 1013.3,   79.3, -999.0
24-07-2022, 00:17:10,    210,    2.6,   15.7,   0.00,   0.00, 1013.3,   79.3, -999.0
24-07-2022, 00:17:20,    160,    3.5,   15.7,   0.00,   0.00, 1013.3,   79.2, -999.0
24-07-2022, 00:17:30,    208,    2.9,   15.7,   0.00,   0.00, 1013.3,   79.3, -999.0
24-07-2022, 00:17:40,    140,    1.4,   15.5,   0.00,   0.00, 1013.3,   79.0, -999.0
24-07-2022, 00:17:50,    211,    1.4,   15.6,   0.00,   0.00, 1013.2,   79.1, -999.0
24-07-2022, 00:18:00,    221,    4.4,   15.6,   0.00,   0.00, 1013.3,   79.2, -999.0
24-07-2022, 00:18:10,    212,    3.5,   15.5,   0.00,   0.00, 1013.3,   79.2, -999.0
24-07-2022, 00:18:19,    187,    3.9,   15.7,   0.00,   0.00, 1013.3,   79.2, -999.0
24-07-2022, 00:18:30,    183,    2.5,   15.7,   0.00,   0.00, 1013.3,   79.0, -999.0
24-07-2022, 00:18:39,    217,    1.6,   15.7,   0.00,   0.00, 1013.3,   79.1, -999.0
24-07-2022, 00:18:49,    258,    3.6,   15.7,   0.00,   0.00, 1013.3,   79.1, -999.0
24-07-2022, 00:18:59,    185,    2.1,   15.7,   0.00,   0.00, 1013.3,   79.1, -999.0
24-07-2022, 00:19:09,    186,    2.6,   15.7,   0.00,   0.00, 1013.3,   79.1, -999.0
24-07-2022, 00:19:19,    186,    1.1,   15.7,   0.00,   0.00, 1013.2,   79.0, -999.0
24-07-2022, 00:19:29,    190,    2.1,   15.7,   0.00,   0.00, 1013.3,   79.1, -999.0
24-07-2022, 00:19:39,    227,    2.9,   15.7,   0.00,   0.00, 1013.3,   79.0, -999.0
24-07-2022, 00:19:49,    238,    0.6,   15.7,   0.00,   0.00, 1013.2,   79.0, -999.0
24-07-2022, 00:19:59,    242,    1.8,   15.6,   0.00,   0.00, 1013.3,   79.1, -999.0
24-07-2022, 00:20:09,    204,    1.7,   15.7,   0.00,   0.00, 1013.3,   79.1, -999.0
24-07-2022, 00:20:19,    180,    1.4,   15.7,   0.00,   0.00, 1013.3,   79.1, -999.0
24-07-2022, 00:20:29,    179,    0.2,   15.7,   0.00,   0.00, 1013.2,   78.9, -999.0
24-07-2022, 00:20:39,    186,    0.8,   15.7,   0.00,   0.00, 1013.3,   79.0, -999.0
24-07-2022, 00:20:48,    191,    1.6,   15.7,   0.00,   0.00, 1013.3,   79.2, -999.0
24-07-2022, 00:20:59,    214,    0.8,   15.7,   0.00,   0.00, 1013.3,   79.1, -999.0
24-07-2022, 00:21:09,    195,    2.1,   15.7,   0.00,   0.00, 1013.3,   79.2, -999.0
24-07-2022, 00:21:18,    191,    2.8,   15.7,   0.00,   0.00, 1013.3,   79.0, -999.0
24-07-2022, 00:21:29,    266,    0.9,   15.7,   0.00,   0.00, 1013.2,   78.9, -999.0
24-07-2022, 00:21:39,    210,    0.9,   15.6,   0.00,   0.00, 1013.3,   78.9, -999.0
24-07-2022, 00:21:48,    209,    0.0,   15.6,   0.00,   0.00, 1013.2,   78.6, -999.0
24-07-2022, 00:21:58,    241,    0.3,   15.7,   0.00,   0.00, 1013.3,   78.8, -999.0
24-07-2022, 00:22:08,    226,    1.8,   15.8,   0.00,   0.00, 1013.3,   79.0, -999.0
24-07-2022, 00:22:18,    207,    1.1,   15.7,   0.00,   0.00, 1013.3,   78.9, -999.0
24-07-2022, 00:22:28,    225,    1.1,   15.7,   0.00,   0.00, 1013.3,   79.0, -999.0
24-07-2022, 00:22:38,    210,    1.0,   15.7,   0.00,   0.00, 1013.3,   78.9, -999.0
24-07-2022, 00:22:48,    225,    1.1,   15.7,   0.00,   0.00, 1013.3,   78.8, -999.0
24-07-2022, 00:22:58,    199,    1.7,   15.8,   0.00,   0.00, 1013.3,   78.9, -999.0
24-07-2022, 00:23:08,    199,    0.3,   15.7,   0.00,   0.00, 1013.2,   78.7, -999.0
24-07-2022, 00:23:18,    216,    1.3,   15.7,   0.00,   0.00, 1013.3,   78.9, -999.0
24-07-2022, 00:23:28,    214,    0.2,   15.7,   0.00,   0.00, 1013.3,   78.8, -999.0
24-07-2022, 00:23:38,    214,    0.1,   15.6,   0.00,   0.00, 1013.2,   78.7, -999.0
24-07-2022, 00:23:48,    226,    2.0,   15.7,   0.00,   0.00, 1013.3,   78.8, -999.0
24-07-2022, 00:23:58,    188,    2.4,   15.8,   0.00,   0.00, 1013.4,   78.9, -999.0
24-07-2022, 00:24:08,    189,    0.5,   15.7,   0.00,   0.00, 1013.3,   78.8, -999.0
24-07-2022, 00:24:18,    191,    0.5,   15.7,   0.00,   0.00, 1013.3,   78.8, -999.0
24-07-2022, 00:24:27,    189,    0.1,   15.7,   0.00,   0.00, 1013.3,   78.7, -999.0
24-07-2022, 00:24:38,    189,    0.2,   15.6,   0.00,   0.00, 1013.2,   78.6, -999.0
24-07-2022, 00:24:47,    189,    0.0,   15.7,   0.00,   0.00, 1013.2,   78.5, -999.0
24-07-2022, 00:24:57,    189,    0.0,   15.7,   0.00,   0.00, 1013.2,   78.5, -999.0
24-07-2022, 00:25:07,    189,    0.0,   15.7,   0.00,   0.00, 1013.2,   78.5, -999.0
24-07-2022, 00:25:17,    189,    0.0,   15.7,   0.00,   0.00, 1013.2,   78.5, -999.0
24-07-2022, 00:25:27,    215,    1.0,   15.7,   0.00,   0.00, 1013.2,   78.6, -999.0
24-07-2022, 00:25:37,    219,    1.4,   15.8,   0.00,   0.00, 1013.3,   78.9, -999.0
24-07-2022, 00:25:47,    219,    0.1,   15.7,   0.00,   0.00, 1013.3,   78.7, -999.0
24-07-2022, 00:25:57,    165,    0.6,   15.7,   0.00,   0.00, 1013.3,   78.7, -999.0
24-07-2022, 00:26:07,    164,    0.0,   15.7,   0.00,   0.00, 1013.2,   78.5, -999.0
24-07-2022, 00:26:27,    165,    0.0,   15.6,   0.00,   0.00, 1013.2,   78.5, -999.0
24-07-2022, 00:26:37,    197,    2.3,   15.7,   0.00,   0.00, 1013.3,   79.0, -999.0
24-07-2022, 00:26:47,    209,    2.2,   15.8,   0.00,   0.00, 1013.3,   78.8, -999.0
24-07-2022, 00:26:56,    194,    2.6,   15.8,   0.00,   0.00, 1013.3,   78.7, -999.0
24-07-2022, 00:27:07,    171,    3.0,   15.7,   0.00,   0.00, 1013.3,   78.7, -999.0
24-07-2022, 00:27:17,    203,    1.6,   15.8,   0.00,   0.00, 1013.3,   78.6, -999.0
24-07-2022, 00:27:26,    181,    2.6,   15.8,   0.00,   0.00, 1013.3,   78.6, -999.0
24-07-2022, 00:27:37,    200,    2.9,   15.8,   0.00,   0.00, 1013.3,   78.6, -999.0
24-07-2022, 00:27:47,    221,    2.7,   15.8,   0.00,   0.00, 1013.3,   78.6, -999.0
24-07-2022, 00:27:56,    197,    2.2,   15.8,   0.00,   0.00, 1013.3,   78.6, -999.0
24-07-2022, 00:28:06,    229,    2.4,   15.8,   0.00,   0.00, 1013.3,   78.6, -999.0
24-07-2022, 00:28:16,    216,    3.0,   15.7,   0.00,   0.00, 1013.3,   78.6, -999.0
24-07-2022, 00:28:26,    182,    3.8,   15.8,   0.00,   0.00, 1013.3,   78.6, -999.0
24-07-2022, 00:28:36,    171,    3.0,   15.8,   0.00,   0.00, 1013.3,   78.5, -999.0
24-07-2022, 00:28:46,    216,    4.3,   15.8,   0.00,   0.00, 1013.3,   78.6, -999.0
24-07-2022, 00:28:56,    224,    2.8,   15.7,   0.00,   0.00, 1013.3,   78.4, -999.0
24-07-2022, 00:29:06,    256,    1.0,   15.7,   0.00,   0.00, 1013.3,   78.4, -999.0
24-07-2022, 00:29:16,    186,    1.3,   15.8,   0.00,   0.00, 1013.3,   78.4, -999.0
24-07-2022, 00:29:26,    181,    0.9,   15.8,   0.00,   0.00, 1013.2,   78.4, -999.0
24-07-2022, 00:29:36,    180,    0.2,   15.7,   0.00,   0.00, 1013.2,   78.4, -999.0
24-07-2022, 00:29:46,    195,    1.5,   15.8,   0.00,   0.00, 1013.3,   78.5, -999.0
24-07-2022, 00:29:56,    196,    0.7,   15.8,   0.00,   0.00, 1013.2,   78.4, -999.0
24-07-2022, 00:30:06,    191,    0.5,   15.8,   0.00,   0.00, 1013.3,   78.4, -999.0
24-07-2022, 00:30:16,    192,    1.0,   15.8,   0.00,   0.00, 1013.3,   78.4, -999.0
24-07-2022, 00:30:25,    228,    0.3,   15.8,   0.00,   0.00, 1013.2,   78.2, -999.0
24-07-2022, 00:30:35,    204,    0.8,   15.7,   0.00,   0.00, 1013.2,   78.3, -999.0
24-07-2022, 00:30:46,    156,    2.4,   15.8,   0.00,   0.00, 1013.3,   78.5, -999.0
24-07-2022, 00:30:55,    155,    0.7,   15.8,   0.00,   0.00, 1013.2,   78.4, -999.0
24-07-2022, 00:31:05,    185,    0.5,   15.8,   0.00,   0.00, 1013.2,   78.2, -999.0
24-07-2022, 00:31:15,    202,    1.3,   15.8,   0.00,   0.00, 1013.3,   78.4, -999.0
24-07-2022, 00:31:25,    222,    1.6,   15.8,   0.00,   0.00, 1013.3,   78.4, -999.0
24-07-2022, 00:31:35,    182,    3.2,   15.8,   0.00,   0.00, 1013.3,   78.5, -999.0
24-07-2022, 00:31:45,    213,    1.7,   15.8,   0.00,   0.00, 1013.3,   78.4, -999.0
24-07-2022, 00:31:55,    210,    2.3,   15.8,   0.00,   0.00, 1013.3,   78.4, -999.0
24-07-2022, 00:32:05,    203,    0.7,   15.8,   0.00,   0.00, 1013.3,   78.3, -999.0
24-07-2022, 00:32:15,    180,    2.9,   15.7,   0.00,   0.00, 1013.3,   78.3, -999.0
24-07-2022, 00:32:25,    140,    1.6,   15.7,   0.00,   0.00, 1013.3,   78.4, -999.0
24-07-2022, 00:32:35,    204,    1.3,   15.8,   0.00,   0.00, 1013.3,   78.4, -999.0
24-07-2022, 00:32:45,    200,    1.5,   15.7,   0.00,   0.00, 1013.3,   78.4, -999.0
24-07-2022, 00:32:55,    200,    1.3,   15.8,   0.00,   0.00, 1013.3,   78.4, -999.0
24-07-2022, 00:33:04,    201,    0.7,   15.7,   0.00,   0.00, 1013.3,   78.5, -999.0
24-07-2022, 00:33:15,    218,    1.7,   15.7,   0.00,   0.00, 1013.3,   78.4, -999.0
24-07-2022, 00:33:25,    162,    2.5,   15.8,   0.00,   0.00, 1013.3,   78.6, -999.0
24-07-2022, 00:33:34,    226,    2.3,   15.8,   0.00,   0.00, 1013.3,   78.4, -999.0
24-07-2022, 00:33:44,    213,    1.8,   15.7,   0.00,   0.00, 1013.3,   78.6, -999.0
24-07-2022, 00:33:55,    213,    0.9,   15.7,   0.00,   0.00, 1013.2,   78.5, -999.0
24-07-2022, 00:34:06,    182,    1.0,   15.7,   0.00,   0.00, 1013.2,   78.4, -999.0
24-07-2022, 00:34:14,    182,    0.2,   15.7,   0.00,   0.00, 1013.2,   78.4, -999.0
24-07-2022, 00:34:24,    208,    2.0,   15.7,   0.00,   0.00, 1013.3,   78.5, -999.0
24-07-2022, 00:34:34,    211,    1.1,   15.7,   0.00,   0.00, 1013.2,   78.6, -999.0
24-07-2022, 00:34:44,    197,    1.0,   15.6,   0.00,   0.00, 1013.3,   78.5, -999.0
24-07-2022, 00:34:54,    208,    0.9,   15.8,   0.00,   0.00, 1013.3,   78.6, -999.0
24-07-2022, 00:35:04,    222,    1.2,   15.7,   0.00,   0.00, 1013.3,   78.5, -999.0
24-07-2022, 00:35:14,    219,    1.0,   15.7,   0.00,   0.00, 1013.3,   78.5, -999.0
24-07-2022, 00:35:24,    218,    0.0,   15.7,   0.00,   0.00, 1013.1,   78.3, -999.0
24-07-2022, 00:35:34,    219,    0.0,   15.7,   0.00,   0.00, 1013.1,   78.3, -999.0
24-07-2022, 00:35:44,    218,    0.1,   15.7,   0.00,   0.00, 1013.2,   78.5, -999.0
24-07-2022, 00:35:54,    214,    1.4,   15.8,   0.00,   0.00, 1013.2,   78.6, -999.0
24-07-2022, 00:36:04,    221,    1.0,   15.7,   0.00,   0.00, 1013.3,   78.6, -999.0
24-07-2022, 00:36:14,    205,    0.4,   15.7,   0.00,   0.00, 1013.2,   78.4, -999.0
24-07-2022, 00:36:23,    218,    0.9,   15.8,   0.00,   0.00, 1013.3,   78.4, -999.0
24-07-2022, 00:36:34,    179,    0.4,   15.7,   0.00,   0.00, 1013.2,   78.5, -999.0
24-07-2022, 00:36:43,    186,    0.0,   15.7,   0.00,   0.00, 1013.2,   78.3, -999.0
24-07-2022, 00:36:53,    192,    0.9,   15.7,   0.00,   0.00, 1013.2,   78.6, -999.0
24-07-2022, 00:37:03,    193,    0.6,   15.8,   0.00,   0.00, 1013.3,   78.6, -999.0
24-07-2022, 00:37:13,    196,    0.9,   15.8,   0.00,   0.00, 1013.3,   78.5, -999.0
24-07-2022, 00:37:23,    202,    1.3,   15.8,   0.00,   0.00, 1013.3,   78.5, -999.0
24-07-2022, 00:37:33,    192,    0.9,   15.8,   0.00,   0.00, 1013.3,   78.4, -999.0
24-07-2022, 00:37:43,    211,    2.7,   15.7,   0.00,   0.00, 1013.3,   78.5, -999.0
24-07-2022, 00:37:53,    216,    2.5,   15.8,   0.00,   0.00, 1013.3,   78.5, -999.0
24-07-2022, 00:38:03,    180,    1.1,   15.8,   0.00,   0.00, 1013.3,   78.5, -999.0
24-07-2022, 00:38:13,    226,    0.3,   15.7,   0.00,   0.00, 1013.2,   78.3, -999.0
24-07-2022, 00:38:23,    166,    2.8,   15.8,   0.00,   0.00, 1013.3,   78.6, -999.0
24-07-2022, 00:38:33,    210,    2.2,   15.7,   0.00,   0.00, 1013.3,   78.5, -999.0
24-07-2022, 00:38:43,    207,    0.4,   15.7,   0.00,   0.00, 1013.2,   78.3, -999.0
24-07-2022, 00:38:53,    211,    1.0,   15.7,   0.00,   0.00, 1013.2,   78.2, -999.0
24-07-2022, 00:39:03,    200,    2.4,   15.8,   0.00,   0.00, 1013.3,   78.4, -999.0
24-07-2022, 00:39:13,    235,    1.5,   15.7,   0.00,   0.00, 1013.3,   78.5, -999.0
24-07-2022, 00:39:22,    224,    2.5,   15.8,   0.00,   0.00, 1013.3,   78.4, -999.0
24-07-2022, 00:39:33,    237,    1.4,   15.7,   0.00,   0.00, 1013.3,   78.4, -999.0
24-07-2022, 00:39:43,    204,    2.2,   15.7,   0.00,   0.00, 1013.3,   78.4, -999.0
24-07-2022, 00:39:52,    211,    2.9,   15.7,   0.00,   0.00, 1013.3,   78.4, -999.0
24-07-2022, 00:40:02,    182,    2.4,   15.7,   0.00,   0.00, 1013.3,   78.5, -999.0
24-07-2022, 00:40:13,    188,    0.8,   15.7,   0.00,   0.00, 1013.2,   78.4, -999.0
24-07-2022, 00:40:22,    189,    0.1,   15.7,   0.00,   0.00, 1013.2,   78.1, -999.0
24-07-2022, 00:40:32,    197,    0.4,   15.7,   0.00,   0.00, 1013.2,   78.4, -999.0
24-07-2022, 00:40:42,    198,    0.5,   15.7,   0.00,   0.00, 1013.2,   78.3, -999.0
24-07-2022, 00:40:52,    198,    0.0,   15.6,   0.00,   0.00, 1013.1,   78.2, -999.0
24-07-2022, 00:41:02,    198,    0.0,   15.7,   0.00,   0.00, 1013.1,   78.2, -999.0
24-07-2022, 00:41:12,    198,    0.0,   15.7,   0.00,   0.00, 1013.1,   78.2, -999.0
24-07-2022, 00:41:22,    198,    0.0,   15.7,   0.00,   0.00, 1013.1,   78.2, -999.0
24-07-2022, 00:41:32,    197,    0.2,   15.7,   0.00,   0.00, 1013.1,   78.4, -999.0
24-07-2022, 00:41:42,    201,    0.4,   15.8,   0.00,   0.00, 1013.2,   78.5, -999.0
24-07-2022, 00:41:52,    206,    0.9,   15.8,   0.00,   0.00, 1013.2,   78.6, -999.0
24-07-2022, 00:42:02,    225,    2.2,   15.8,   0.00,   0.00, 1013.2,   78.4, -999.0
24-07-2022, 00:42:12,    200,    2.5,   15.8,   0.00,   0.00, 1013.3,   78.4, -999.0
24-07-2022, 00:42:22,    198,    2.4,   15.7,   0.00,   0.00, 1013.3,   78.3, -999.0
24-07-2022, 00:42:31,    217,    2.9,   15.8,   0.00,   0.00, 1013.3,   78.4, -999.0
24-07-2022, 00:42:42,    220,    2.9,   15.7,   0.00,   0.00, 1013.3,   78.4, -999.0
24-07-2022, 00:42:51,    210,    2.6,   15.7,   0.00,   0.00, 1013.3,   78.4, -999.0
24-07-2022, 00:43:01,    190,    1.5,   15.8,   0.00,   0.00, 1013.3,   78.4, -999.0
24-07-2022, 00:43:11,    169,    0.8,   15.8,   0.00,   0.00, 1013.3,   78.4, -999.0
24-07-2022, 00:43:21,    192,    2.0,   15.8,   0.00,   0.00, 1013.2,   78.4, -999.0
24-07-2022, 00:43:31,    212,    3.0,   15.7,   0.00,   0.00, 1013.3,   78.3, -999.0
24-07-2022, 00:43:41,    185,    1.8,   15.8,   0.00,   0.00, 1013.3,   78.4, -999.0
24-07-2022, 00:43:51,    227,    1.0,   15.8,   0.00,   0.00, 1013.2,   78.4, -999.0
24-07-2022, 00:44:01,    205,    1.8,   15.8,   0.00,   0.00, 1013.3,   78.3, -999.0
24-07-2022, 00:44:11,    227,    3.5,   15.7,   0.00,   0.00, 1013.3,   78.5, -999.0
24-07-2022, 00:44:21,    207,    1.8,   15.7,   0.00,   0.00, 1013.2,   78.5, -999.0
24-07-2022, 00:44:31,    216,    4.8,   15.7,   0.00,   0.00, 1013.3,   78.4, -999.0
24-07-2022, 00:44:41,    238,    3.1,   15.7,   0.00,   0.00, 1013.3,   78.4, -999.0
24-07-2022, 00:44:51,    183,    3.4,   15.6,   0.00,   0.00, 1013.2,   78.5, -999.0
24-07-2022, 00:45:01,    180,    2.7,   15.6,   0.00,   0.00, 1013.2,   78.3, -999.0
24-07-2022, 00:45:11,    209,    2.0,   15.7,   0.00,   0.00, 1013.3,   78.5, -999.0
24-07-2022, 00:45:21,    210,    0.7,   15.7,   0.00,   0.00, 1013.2,   78.3, -999.0
24-07-2022, 00:45:30,    209,    0.0,   15.6,   0.00,   0.00, 1013.1,   78.2, -999.0
24-07-2022, 00:45:40,    193,    0.0,   15.6,   0.00,   0.00, 1013.1,   78.2, -999.0
24-07-2022, 00:45:51,    194,    0.2,   15.6,   0.00,   0.00, 1013.1,   78.3, -999.0
24-07-2022, 00:46:00,    195,    0.4,   15.6,   0.00,   0.00, 1013.2,   78.5, -999.0
24-07-2022, 00:46:10,    216,    0.7,   15.6,   0.00,   0.00, 1013.2,   78.5, -999.0
24-07-2022, 00:46:21,    195,    0.9,   15.7,   0.00,   0.00, 1013.2,   78.5, -999.0
24-07-2022, 00:46:30,    186,    1.6,   15.7,   0.00,   0.00, 1013.2,   78.5, -999.0
24-07-2022, 00:46:40,    202,    3.1,   15.6,   0.00,   0.00, 1013.2,   78.6, -999.0
24-07-2022, 00:46:50,    205,    0.4,   15.7,   0.00,   0.00, 1013.1,   78.3, -999.0